Regional Weather Roundup
Issued by NWS Little Rock, AR

Home | Current Version | Previous Version | Text Only | Print | Product List | Glossary Off
Versions: 1 2 3 4 5 6 7 8 9 10 11 12 13 14 15 16 17 18 19 20 21 22 23 24 25 26 27 28 29 30 31 32 33 34 35 36 37 38 39 40 41 42 43 44 45 46 47 48 49 50

000
ASUS44 KLZK 061305
RWRLZK

WEATHER ROUNDUP FOR ARKANSAS
NATIONAL WEATHER SERVICE LITTLE ROCK AR
800 AM CDT WED MAY 06 2015

NOTE: "FAIR" INDICATES FEW OR NO CLOUDS BELOW 12,000 FEET WITH NO
SIGNIFICANT WEATHER AND/OR OBSTRUCTIONS TO VISIBILITY.

ARZ001-003-010-029-061400-
NORTHWEST ARKANSAS

CITY           SKY/WX    TMP DP  RH WIND       PRES   REMARKS
FAYETTEVILLE   RAIN      63  63 100 SW9       30.09R FOG
FORT SMITH     LGT RAIN  68  60  75 SE5       30.06R
HARRISON       CLOUDY    67  59  75 S6        30.10R
BENTONVILLE    CLOUDY    59  55  88 CALM      30.11R
ROGERS         LGT RAIN  57  57 100 CALM      30.11S FOG
SILOAM SPGS    CLOUDY    59  54  82 CALM      30.10R
HIGHFILL       HVY RAIN  59  59 100 VRB3      30.09R VSB 1
$$

ARZ004-005-016-061400-
NORTH CENTRAL ARKANSAS

CITY           SKY/WX    TMP DP  RH WIND       PRES   REMARKS
BATESVILLE     SUNNY     70  55  60 CALM      30.12S
FLIPPIN        PTSUNNY   70  57  64 S6        30.09R
MTN HOME       MOSUNNY   68  56  65 SE3       30.10R
$$

ARZ040-041-061400-
WEST CENTRAL ARKANSAS

CITY           SKY/WX    TMP DP  RH WIND       PRES   REMARKS
MENA           CLOUDY    70  59  68 E5        30.08S
MOUNT IDA      CLOUDY    70  61  73 SE5       30.07S
$$

ARZ009-017-025-026-028-061400-
NORTHEAST ARKANSAS

CITY           SKY/WX    TMP DP  RH WIND       PRES   REMARKS
CORNING          N/A     68  57  68 S6        30.14S
JONESBORO      SUNNY     66  57  72 SE3       30.14R
NEWPORT        SUNNY     71  58  63 SE10      30.14R
WALNUT RIDGE   SUNNY     70  55  60 S12       30.13R
BLYTHEVILLE    SUNNY     69  58  67 S8        30.17R
$$

ARZ022-023-033-042-044-061400-
CENTRAL ARKANSAS

CITY           SKY/WX    TMP DP  RH WIND       PRES   REMARKS
LITTLE ROCK    MOSUNNY   67  57  70 S3        30.12R
N LITTLE ROCK    N/A     67  59  73 SW5       30.12R
JACKSONVILLE   MOSUNNY   70  60  70 VRB3      30.11R
SEARCY         MOSUNNY   68  60  75 CALM      30.13S
HOT SPRINGS    MOSUNNY   69  57  65 SE3       30.11R
RUSSELLVILLE   PTSUNNY   69  58  67 VRB5      30.10R
CLINTON        PTSUNNY   63  59  88 CALM      30.13R
$$

ARZ036-061400-
EAST ARKANSAS

CITY           SKY/WX    TMP DP  RH WIND       PRES   REMARKS
WEST MEMPHIS   SUNNY     68  60  75 S7        30.15R
$$

ARZ050-053-066-070-073-061400-
SOUTHWEST ARKANSAS

CITY           SKY/WX    TMP DP  RH WIND       PRES   REMARKS
ARKADELPHIA    FAIR      66  62  87 CALM      30.11R
CAMDEN         MOSUNNY   66  57  72 CALM      30.10R
TEXARKANA      PTSUNNY   67  64  90 SE3       30.07S
EL DORADO      MOSUNNY   66  58  75 SE3       30.10R
DE QUEEN       CLOUDY    68  64  87 E8        30.04S
$$

ARZ056-057-069-061400-
SOUTHEAST ARKANSAS

CITY           SKY/WX    TMP DP  RH WIND       PRES   REMARKS
PINE BLUFF     MOSUNNY   66  59  78 SE3       30.12R
STUTTGART      MOSUNNY   68  57  68 SE8       30.13R
MONTICELLO     SUNNY     66  60  81 SE3       30.12R

$$




USA.gov is the U.S. government's official web portal to all federal, state and local government web resources and services.